CCA981 ZUCK-ZGDY

Flight info

Callsign CCA981
Flight time N/A
Altitude 31100
Route GUTVI B213 KIGUM W240 ENH W139 DYG W194 LLC W138 RUKLI
Aircraft A320/M-SDE3FGHIRWY/LB1

Departure

Time 2026-04-22 11:29
Airport Chongqing Jiangbei International Airport (ZUCK)

Arrival

Time N/A
Airport Zhangjiajie Hehua International Airport (ZGDY)
Time Latitude Longitude Altitude Speed Heading
2026-04-22 10:28 29.71694 106.65547 1344 ft 0 kts 112°
2026-04-22 11:15 29.71696 106.65542 1328 ft 2 kts 112°
2026-04-22 11:15 29.71700 106.65530 1337 ft 2 kts 112°
2026-04-22 11:16 29.71704 106.65519 1345 ft 2 kts 112°
2026-04-22 11:16 29.71708 106.65507 1347 ft 2 kts 112°
2026-04-22 11:16 29.71713 106.65495 1345 ft 2 kts 112°
2026-04-22 11:16 29.71717 106.65483 1345 ft 2 kts 112°
2026-04-22 11:17 29.71721 106.65472 1349 ft 2 kts 112°
2026-04-22 11:17 29.71725 106.65460 1347 ft 2 kts 112°
2026-04-22 11:17 29.71730 106.65448 1349 ft 2 kts 112°
2026-04-22 11:17 29.71734 106.65436 1350 ft 2 kts 112°
2026-04-22 11:18 29.71738 106.65424 1349 ft 2 kts 79°
2026-04-22 11:18 29.71733 106.65414 1350 ft 2 kts 20°
2026-04-22 11:18 29.71734 106.65414 1349 ft 0 kts 20°
2026-04-22 11:18 29.71735 106.65414 1349 ft 0 kts 20°
2026-04-22 11:20 29.71740 106.65417 1348 ft 5 kts 20°
2026-04-22 11:20 29.71803 106.65443 1349 ft 12 kts 20°
2026-04-22 11:21 29.71892 106.65476 1346 ft 14 kts 17°
2026-04-22 11:21 29.71946 106.65516 1348 ft 8 kts 83°
2026-04-22 11:21 29.71941 106.65542 1346 ft 3 kts 108°
2026-04-22 11:21 29.71931 106.65577 1345 ft 6 kts 108°
2026-04-22 11:22 29.71914 106.65638 1343 ft 10 kts 108°
2026-04-22 11:22 29.71889 106.65724 1344 ft 13 kts 108°
2026-04-22 11:22 29.71862 106.65821 1342 ft 10 kts 108°
2026-04-22 11:22 29.71840 106.65907 1337 ft 11 kts 104°
2026-04-22 11:23 29.71817 106.65956 1342 ft 6 kts 161°
2026-04-22 11:23 29.71773 106.65947 1337 ft 7 kts 195°
2026-04-22 11:23 29.71721 106.65930 1337 ft 8 kts 196°
2026-04-22 11:23 29.71662 106.65910 1338 ft 10 kts 196°
2026-04-22 11:24 29.71594 106.65887 1338 ft 11 kts 197°
2026-04-22 11:24 29.71541 106.65870 1338 ft 4 kts 189°
2026-04-22 11:24 29.71515 106.65889 1338 ft 5 kts 121°
2026-04-22 11:24 29.71506 106.65921 1338 ft 0 kts 108°
2026-04-22 11:25 29.71504 106.65929 1338 ft 0 kts 106°
2026-04-22 11:25 29.71499 106.65949 1338 ft 5 kts 106°
2026-04-22 11:25 29.71487 106.65996 1340 ft 7 kts 106°
2026-04-22 11:25 29.71482 106.66014 1337 ft 0 kts 106°
2026-04-22 11:27 29.71481 106.66018 1337 ft 0 kts 106°
2026-04-22 11:27 29.71479 106.66028 1337 ft 3 kts 106°
2026-04-22 11:27 29.71469 106.66065 1337 ft 6 kts 106°
2026-04-22 11:27 29.71459 106.66111 1342 ft 6 kts 96°
2026-04-22 11:28 29.71484 106.66158 1337 ft 8 kts 33°
2026-04-22 11:28 29.71498 106.66164 1337 ft 0 kts 20°
2026-04-22 11:28 29.71499 106.66165 1337 ft 2 kts 20°
2026-04-22 11:28 29.71679 106.66227 1336 ft 61 kts 16°
2026-04-22 11:29 29.72295 106.66437 1330 ft 118 kts 17°
2026-04-22 11:29 29.73208 106.66751 1324 ft 158 kts 17°
2026-04-22 11:29 29.74325 106.67156 1700 ft 165 kts 16°
2026-04-22 11:29 29.75391 106.67530 2410 ft 161 kts 15°
2026-04-22 11:30 29.76470 106.67926 2904 ft 164 kts 23°
2026-04-22 11:30 29.77483 106.68589 3325 ft 175 kts 30°
2026-04-22 11:30 29.78588 106.69362 3542 ft 197 kts 30°
2026-04-22 11:30 29.79833 106.70230 3745 ft 221 kts 30°
2026-04-22 11:31 29.81237 106.71210 4062 ft 246 kts 31°
2026-04-22 11:31 29.82757 106.72272 4626 ft 262 kts 30°
2026-04-22 11:31 29.84337 106.73374 5443 ft 267 kts 30°
2026-04-22 11:31 29.85941 106.74494 6301 ft 272 kts 30°
2026-04-22 11:32 29.87549 106.75665 7084 ft 276 kts 37°
2026-04-22 11:32 29.88479 106.76676 7601 ft 280 kts 49°
2026-04-22 11:32 29.89505 106.78605 8386 ft 286 kts 63°
2026-04-22 11:32 29.90350 106.80692 9181 ft 290 kts 63°
2026-04-22 11:33 29.91500 106.83529 10194 ft 294 kts 62°
2026-04-22 11:33 29.92081 106.84953 10647 ft 297 kts 62°
2026-04-22 11:33 29.92988 106.87171 10930 ft 318 kts 62°
2026-04-22 11:33 29.93969 106.89559 11083 ft 341 kts 62°
2026-04-22 11:34 29.95007 106.92099 11208 ft 363 kts 63°
2026-04-22 11:34 29.96183 106.94751 11597 ft 372 kts 55°
2026-04-22 11:34 29.97763 106.97120 12183 ft 376 kts 48°
2026-04-22 11:34 29.99193 106.99671 12761 ft 384 kts 64°
2026-04-22 11:35 29.99971 107.02639 13343 ft 391 kts 79°
2026-04-22 11:35 30.00107 107.05795 13881 ft 398 kts 92°
2026-04-22 11:35 29.99809 107.08991 14356 ft 402 kts 95°
2026-04-22 11:35 29.99510 107.12217 14838 ft 406 kts 95°
2026-04-22 11:36 29.99225 107.15476 15318 ft 410 kts 95°
2026-04-22 11:36 29.98943 107.18759 15793 ft 414 kts 95°
2026-04-22 11:36 29.98657 107.22080 16267 ft 418 kts 95°
2026-04-22 11:36 29.98363 107.25432 16736 ft 422 kts 95°
2026-04-22 11:37 29.98062 107.28814 17217 ft 426 kts 95°
2026-04-22 11:37 29.97754 107.32230 17688 ft 430 kts 95°
2026-04-22 11:37 29.97439 107.35678 18162 ft 434 kts 95°
2026-04-22 11:37 29.97118 107.39155 18591 ft 438 kts 96°
2026-04-22 11:38 29.96794 107.42668 19014 ft 442 kts 96°
2026-04-22 11:38 29.96468 107.46197 19429 ft 445 kts 96°
2026-04-22 11:38 29.95805 107.53352 20281 ft 452 kts 96°
2026-04-22 11:39 29.95470 107.56975 20707 ft 456 kts 96°
2026-04-22 11:39 29.95133 107.60621 21117 ft 459 kts 96°
2026-04-22 11:39 29.94789 107.64298 21526 ft 462 kts 96°
2026-04-22 11:39 29.94440 107.67999 21935 ft 465 kts 96°
2026-04-22 11:40 29.94093 107.71713 22315 ft 469 kts 96°
2026-04-22 11:40 29.93742 107.75463 22682 ft 472 kts 96°
2026-04-22 11:40 29.93450 107.79248 23042 ft 475 kts 91°
2026-04-22 11:40 29.93607 107.83059 23416 ft 478 kts 82°
2026-04-22 11:41 29.94295 107.86817 23753 ft 480 kts 72°
2026-04-22 11:41 29.95244 107.90509 24055 ft 483 kts 72°
2026-04-22 11:41 29.96182 107.94189 24354 ft 486 kts 72°
2026-04-22 11:41 29.97131 107.97941 24661 ft 489 kts 72°
2026-04-22 11:42 29.98086 108.01720 24976 ft 492 kts 72°
2026-04-22 11:42 29.99043 108.05519 25305 ft 494 kts 72°
2026-04-22 11:42 30.00004 108.09341 25598 ft 498 kts 72°
2026-04-22 11:42 30.00966 108.13184 25879 ft 501 kts 72°
2026-04-22 11:43 30.01930 108.17046 26271 ft 501 kts 72°
2026-04-22 11:43 30.02897 108.20914 26710 ft 501 kts 72°
2026-04-22 11:43 30.03862 108.24778 27142 ft 502 kts 72°
2026-04-22 11:43 30.04827 108.28645 27546 ft 501 kts 72°
2026-04-22 11:44 30.05792 108.32509 27928 ft 502 kts 72°
2026-04-22 11:44 30.06761 108.36387 28345 ft 502 kts 72°
2026-04-22 11:44 30.07726 108.40268 28787 ft 502 kts 72°
2026-04-22 11:44 30.08688 108.44144 29221 ft 503 kts 72°
2026-04-22 11:45 30.09652 108.48022 29668 ft 503 kts 72°
2026-04-22 11:45 30.10615 108.51910 30108 ft 503 kts 72°
2026-04-22 11:45 30.11576 108.55795 30477 ft 504 kts 72°
2026-04-22 11:45 30.12583 108.59679 30807 ft 505 kts 70°
2026-04-22 11:46 30.13670 108.63538 31049 ft 506 kts 69°
2026-04-22 11:46 30.14825 108.67403 31113 ft 512 kts 68°
2026-04-22 11:46 30.17237 108.75266 31112 ft 524 kts 68°
2026-04-22 11:47 30.19604 108.83246 31111 ft 525 kts 69°
2026-04-22 11:47 30.21871 108.91283 31112 ft 527 kts 73°
2026-04-22 11:48 30.23007 108.99613 31112 ft 528 kts 83°
2026-04-22 11:48 30.23876 109.08050 31114 ft 528 kts 82°
2026-04-22 11:49 30.24768 109.16483 31116 ft 529 kts 82°
2026-04-22 11:49 30.25645 109.24935 31114 ft 529 kts 83°
2026-04-22 11:50 30.26497 109.33381 31118 ft 529 kts 83°
2026-04-22 11:50 30.27338 109.41834 31122 ft 528 kts 83°
2026-04-22 11:51 30.27739 109.50298 31120 ft 527 kts 97°
2026-04-22 11:51 30.27036 109.54445 31115 ft 524 kts 109°
2026-04-22 11:51 30.25687 109.58334 31113 ft 519 kts 121°
2026-04-22 11:52 30.23785 109.61834 31107 ft 512 kts 132°
2026-04-22 11:52 30.22257 109.63895 31096 ft 506 kts 140°
2026-04-22 11:52 30.18120 109.67655 31093 ft 493 kts 155°
2026-04-22 11:53 30.15171 109.69651 30660 ft 490 kts 156°
2026-04-22 11:53 30.12223 109.71643 29820 ft 492 kts 155°
2026-04-22 11:53 30.09265 109.73643 28916 ft 494 kts 155°
2026-04-22 11:53 30.06296 109.75651 28032 ft 494 kts 154°
2026-04-22 11:54 30.03325 109.77661 27160 ft 494 kts 154°
2026-04-22 11:54 30.00359 109.79666 26645 ft 494 kts 154°
2026-04-22 11:54 29.97391 109.81670 26400 ft 495 kts 154°
2026-04-22 11:54 29.94422 109.83673 25663 ft 494 kts 154°
2026-04-22 11:55 29.91435 109.85682 24448 ft 501 kts 154°
2026-04-22 11:55 29.88277 109.87345 23204 ft 498 kts 167°
2026-04-22 11:55 29.84915 109.87925 22375 ft 482 kts 184°
2026-04-22 11:55 29.81642 109.87497 21495 ft 469 kts 195°
2026-04-22 11:56 29.78465 109.86715 20541 ft 465 kts 196°
2026-04-22 11:56 29.75321 109.85918 19654 ft 462 kts 196°
2026-04-22 11:56 29.72143 109.85390 18810 ft 463 kts 184°
2026-04-22 11:56 29.68979 109.85776 17946 ft 466 kts 168°
2026-04-22 11:57 29.65964 109.87134 17057 ft 466 kts 152°
2026-04-22 11:57 29.63382 109.89355 16255 ft 464 kts 136°
2026-04-22 11:57 29.61205 109.92130 15427 ft 459 kts 132°
2026-04-22 11:57 29.59121 109.94880 14667 ft 454 kts 132°
2026-04-22 11:58 29.57066 109.97599 13977 ft 448 kts 132°
2026-04-22 11:58 29.55043 110.00274 13051 ft 436 kts 132°
2026-04-22 11:58 29.53084 110.02856 12258 ft 417 kts 132°
2026-04-22 11:58 29.51243 110.05273 11992 ft 386 kts 132°
2026-04-22 11:59 29.49540 110.07500 11831 ft 357 kts 132°
2026-04-22 11:59 29.47987 110.09532 11826 ft 329 kts 132°
2026-04-22 11:59 29.46534 110.11434 11832 ft 305 kts 132°
2026-04-22 11:59 29.45190 110.13193 11835 ft 282 kts 132°
2026-04-22 12:00 29.43931 110.14839 11838 ft 269 kts 132°
2026-04-22 12:00 29.42649 110.16360 11748 ft 265 kts 140°
2026-04-22 12:00 29.41104 110.17617 11140 ft 277 kts 153°
2026-04-22 12:00 29.39378 110.18474 10895 ft 264 kts 165°
2026-04-22 12:01 29.37616 110.18933 10762 ft 257 kts 175°
2026-04-22 12:01 29.35841 110.19019 10642 ft 253 kts 186°
2026-04-22 12:01 29.34122 110.18750 10530 ft 248 kts 196°
2026-04-22 12:01 29.32465 110.18220 10422 ft 246 kts 199°
2026-04-22 12:02 29.30816 110.17681 10293 ft 246 kts 198°
2026-04-22 12:02 29.29151 110.17140 10177 ft 251 kts 198°
2026-04-22 12:02 29.27464 110.16594 10059 ft 252 kts 198°
2026-04-22 12:02 29.25767 110.16042 9763 ft 257 kts 198°
2026-04-22 12:03 29.24026 110.15470 9301 ft 263 kts 198°
2026-04-22 12:03 29.22272 110.14898 8873 ft 260 kts 198°
2026-04-22 12:03 29.20546 110.14339 8474 ft 256 kts 198°
2026-04-22 12:03 29.18843 110.13787 8070 ft 253 kts 198°
2026-04-22 12:04 29.17163 110.13245 7679 ft 249 kts 195°
2026-04-22 12:04 29.15464 110.12972 7285 ft 247 kts 182°
2026-04-22 12:04 29.13749 110.13088 6886 ft 246 kts 175°
2026-04-22 12:04 29.12040 110.13266 6495 ft 249 kts 175°
2026-04-22 12:05 29.10295 110.13440 6069 ft 254 kts 175°
2026-04-22 12:05 29.08562 110.13863 5649 ft 258 kts 158°
2026-04-22 12:05 29.07040 110.14922 5339 ft 256 kts 137°
2026-04-22 12:05 29.05921 110.16459 5185 ft 247 kts 119°
2026-04-22 12:06 29.05287 110.18235 5068 ft 236 kts 104°
2026-04-22 12:06 29.04985 110.20030 4955 ft 226 kts 88°
2026-04-22 12:06 29.05226 110.21776 4680 ft 223 kts 74°
2026-04-22 12:06 29.05623 110.23492 4364 ft 223 kts 74°
2026-04-22 12:07 29.06015 110.25205 4058 ft 223 kts 74°
2026-04-22 12:07 29.06403 110.26910 3889 ft 216 kts 75°
2026-04-22 12:07 29.06766 110.28527 3917 ft 202 kts 75°
2026-04-22 12:07 29.07094 110.30002 3929 ft 179 kts 75°
2026-04-22 12:08 29.07387 110.31322 3934 ft 159 kts 74°
2026-04-22 12:08 29.07651 110.32507 3917 ft 152 kts 74°
2026-04-22 12:08 29.07913 110.33680 3932 ft 149 kts 74°
2026-04-22 12:08 29.08168 110.34829 3928 ft 148 kts 74°
2026-04-22 12:09 29.08425 110.35983 3928 ft 148 kts 74°
2026-04-22 12:09 29.08680 110.37124 3932 ft 148 kts 74°
2026-04-22 12:09 29.08934 110.38263 3924 ft 148 kts 74°
2026-04-22 12:09 29.09190 110.39405 3935 ft 148 kts 74°
2026-04-22 12:10 29.09452 110.40577 3924 ft 154 kts 74°
2026-04-22 12:10 29.09719 110.41773 3933 ft 156 kts 74°
2026-04-22 12:10 29.09986 110.42972 3921 ft 156 kts 74°
2026-04-22 12:10 29.10255 110.44176 3931 ft 156 kts 75°
2026-04-22 12:11 29.10524 110.45381 3934 ft 156 kts 75°
2026-04-22 12:11 29.10793 110.46586 3934 ft 156 kts 74°
2026-04-22 12:11 29.11061 110.47788 3935 ft 156 kts 74°
2026-04-22 12:11 29.11328 110.48990 3935 ft 156 kts 75°
2026-04-22 12:12 29.11592 110.50193 3934 ft 156 kts 75°
2026-04-22 12:12 29.11855 110.51395 3937 ft 156 kts 75°
2026-04-22 12:12 29.12118 110.52598 3936 ft 156 kts 75°
2026-04-22 12:12 29.12382 110.53801 3932 ft 156 kts 75°
2026-04-22 12:13 29.12645 110.55005 3933 ft 156 kts 75°
2026-04-22 12:13 29.12976 110.56175 3927 ft 154 kts 57°
2026-04-22 12:13 29.13448 110.56771 3926 ft 153 kts 32°
2026-04-22 12:13 29.14463 110.57168 4176 ft 160 kts 13°
2026-04-22 12:14 29.15627 110.57489 4395 ft 184 kts 14°
2026-04-22 12:14 29.16952 110.57872 4734 ft 205 kts 14°
2026-04-22 12:14 29.18349 110.58277 5376 ft 209 kts 14°
2026-04-22 12:14 29.19765 110.58687 6109 ft 211 kts 13°
2026-04-22 12:15 29.21195 110.59097 6852 ft 213 kts 13°
2026-04-22 12:15 29.22652 110.59515 7506 ft 221 kts 12°